PDA006 LETL-UKBB

Flight info

Callsign PDA006
Flight time 3h 10m
Altitude 43000
Route DORMI DCT VILAR DCT NOSTA DCT NOPMU DCT KALMO DCT CHI DCT ROSKA DCT BARPI DCT IRLIX DCT DIMLO DCT LONLA/K0904F430 DCT SORON M986 SLV
Aircraft B772/H-SDE2E3FGHIJ5LORVWXY/LB1D1

Departure

Time 2026-05-04 17:52
Airport Teruel Airport (LETL)

Arrival

Time 2026-05-04 21:02
Airport Boryspil International Airport (UKBB)
Time Latitude Longitude Altitude Speed Heading
2026-05-04 17:37 40.41225 -1.22182 3362 ft 0 kts 268°
2026-05-04 17:44 40.41225 -1.22179 3357 ft 3 kts 268°
2026-05-04 17:44 40.41225 -1.22153 3362 ft 3 kts 274°
2026-05-04 17:44 40.41223 -1.22126 3357 ft 3 kts 282°
2026-05-04 17:44 40.41218 -1.22101 3371 ft 3 kts 294°
2026-05-04 17:45 40.41208 -1.22079 3366 ft 3 kts 319°
2026-05-04 17:45 40.41195 -1.22069 3372 ft 1 kts 358°
2026-05-04 17:45 40.41194 -1.22069 3372 ft 0 kts 358°
2026-05-04 17:47 40.41201 -1.22069 3372 ft 3 kts 358°
2026-05-04 17:47 40.41248 -1.22072 3367 ft 10 kts 357°
2026-05-04 17:47 40.41314 -1.22075 3364 ft 10 kts
2026-05-04 17:48 40.41360 -1.22019 3363 ft 10 kts 69°
2026-05-04 17:48 40.41369 -1.21869 3354 ft 20 kts 88°
2026-05-04 17:48 40.41313 -1.21763 3356 ft 15 kts 174°
2026-05-04 17:48 40.41190 -1.21757 3354 ft 23 kts 178°
2026-05-04 17:49 40.40999 -1.21749 3355 ft 31 kts 178°
2026-05-04 17:49 40.40790 -1.21738 3367 ft 30 kts 177°
2026-05-04 17:49 40.40581 -1.21727 3373 ft 30 kts 177°
2026-05-04 17:49 40.40373 -1.21715 3378 ft 30 kts 178°
2026-05-04 17:50 40.40166 -1.21704 3380 ft 27 kts 176°
2026-05-04 17:50 40.40029 -1.21633 3380 ft 17 kts 155°
2026-05-04 17:50 40.39951 -1.21674 3376 ft 14 kts 271°
2026-05-04 17:50 40.40000 -1.21701 3379 ft 8 kts
2026-05-04 17:51 40.40055 -1.21698 3376 ft 8 kts 358°
2026-05-04 17:51 40.40171 -1.21704 3380 ft 34 kts 358°
2026-05-04 17:51 40.40669 -1.21731 3369 ft 113 kts 357°
2026-05-04 17:51 40.41718 -1.21787 3436 ft 181 kts 353°
2026-05-04 17:52 40.43060 -1.21797 4269 ft 201 kts 358°
2026-05-04 17:52 40.44495 -1.21735 5324 ft 208 kts 358°
2026-05-04 17:52 40.45970 -1.21636 5782 ft 227 kts 359°
2026-05-04 17:52 40.47641 -1.21537 6203 ft 243 kts 359°
2026-05-04 17:53 40.49373 -1.21436 6601 ft 265 kts 359°
2026-05-04 17:53 40.51250 -1.21325 7274 ft 274 kts 359°
2026-05-04 17:53 40.53180 -1.21200 8066 ft 281 kts 359°
2026-05-04 17:53 40.55157 -1.21064 8881 ft 287 kts 359°
2026-05-04 17:54 40.57150 -1.20852 9777 ft 289 kts
2026-05-04 17:54 40.59005 -1.19641 10328 ft 315 kts 38°
2026-05-04 17:54 40.60381 -1.17240 10537 ft 344 kts 60°
2026-05-04 17:54 40.61533 -1.14350 11019 ft 366 kts 61°
2026-05-04 17:55 40.62735 -1.11330 11874 ft 378 kts 61°
2026-05-04 17:55 40.63577 -1.09252 12664 ft 382 kts 60°
2026-05-04 17:55 40.64834 -1.06206 13866 ft 386 kts 60°
2026-05-04 17:55 40.66147 -1.03090 14904 ft 392 kts 59°
2026-05-04 17:56 40.67494 -0.99938 15960 ft 398 kts 59°
2026-05-04 17:56 40.68872 -0.96747 17015 ft 404 kts 59°
2026-05-04 17:56 40.70275 -0.93516 18050 ft 410 kts 59°
2026-05-04 17:56 40.71703 -0.90237 18957 ft 415 kts 59°
2026-05-04 17:57 40.73153 -0.86909 19793 ft 421 kts 59°
2026-05-04 17:57 40.74621 -0.83538 20634 ft 428 kts 59°
2026-05-04 17:57 40.76114 -0.80109 21472 ft 434 kts 59°
2026-05-04 17:57 40.77623 -0.76635 22297 ft 440 kts 59°
2026-05-04 17:58 40.79161 -0.73095 22971 ft 450 kts 60°
2026-05-04 17:58 40.80731 -0.69470 23650 ft 460 kts 60°
2026-05-04 17:58 40.82326 -0.65784 24379 ft 465 kts 60°
2026-05-04 17:58 40.83937 -0.62057 25114 ft 470 kts 60°
2026-05-04 17:59 40.85565 -0.58284 25828 ft 475 kts 60°
2026-05-04 17:59 40.87210 -0.54470 26486 ft 481 kts 60°
2026-05-04 17:59 40.90562 -0.46681 27723 ft 493 kts 60°
2026-05-04 18:00 40.92266 -0.42713 28369 ft 497 kts 60°
2026-05-04 18:00 40.93979 -0.38721 29032 ft 501 kts 60°
2026-05-04 18:00 40.95706 -0.34690 29588 ft 507 kts 60°
2026-05-04 18:00 40.97452 -0.30608 30064 ft 513 kts 60°
2026-05-04 18:01 40.99220 -0.26470 30483 ft 518 kts 60°
2026-05-04 18:01 41.00972 -0.22364 30935 ft 521 kts 61°
2026-05-04 18:01 41.02759 -0.18171 31430 ft 524 kts 61°
2026-05-04 18:02 41.06359 -0.09703 32243 ft 531 kts 61°
2026-05-04 18:02 41.08174 -0.05426 32598 ft 535 kts 61°
2026-05-04 18:02 41.09999 -0.01119 32951 ft 538 kts 61°
2026-05-04 18:02 41.11836 0.03225 33245 ft 542 kts 61°
2026-05-04 18:03 41.13681 0.07590 33641 ft 543 kts 62°
2026-05-04 18:03 41.15523 0.11957 34181 ft 540 kts 62°
2026-05-04 18:03 41.17350 0.16293 34675 ft 538 kts 62°
2026-05-04 18:03 41.19173 0.20624 35130 ft 537 kts 61°
2026-05-04 18:04 41.20990 0.24952 35541 ft 537 kts 61°
2026-05-04 18:04 41.22805 0.29279 35968 ft 536 kts 61°
2026-05-04 18:04 41.26418 0.37913 36830 ft 534 kts 61°
2026-05-04 18:05 41.28221 0.42231 37252 ft 533 kts 61°
2026-05-04 18:05 41.30015 0.46535 37698 ft 532 kts 61°
2026-05-04 18:05 41.31807 0.50840 38122 ft 531 kts 60°
2026-05-04 18:05 41.33593 0.55132 38541 ft 530 kts 60°
2026-05-04 18:06 41.37083 0.63760 39250 ft 528 kts 62°
2026-05-04 18:06 41.38772 0.68096 39559 ft 527 kts 63°
2026-05-04 18:06 41.40446 0.72431 39867 ft 527 kts 63°
2026-05-04 18:07 41.42121 0.76774 40139 ft 526 kts 63°
2026-05-04 18:07 41.43798 0.81116 40367 ft 528 kts 63°
2026-05-04 18:07 41.45484 0.85468 40614 ft 528 kts 63°
2026-05-04 18:07 41.47168 0.89811 40917 ft 527 kts 62°
2026-05-04 18:08 41.48849 0.94146 41243 ft 526 kts 62°
2026-05-04 18:08 41.50528 0.98477 41536 ft 525 kts 62°
2026-05-04 18:08 41.52202 1.02801 41809 ft 525 kts 62°
2026-05-04 18:08 41.53874 1.07127 42077 ft 524 kts 62°
2026-05-04 18:09 41.57205 1.15768 42696 ft 521 kts 62°
2026-05-04 18:09 41.60517 1.24387 42919 ft 524 kts 62°
2026-05-04 18:10 41.63833 1.33042 42924 ft 522 kts 63°
2026-05-04 18:10 41.67107 1.41613 42932 ft 519 kts 63°
2026-05-04 18:11 41.70403 1.50270 42931 ft 518 kts 63°
2026-05-04 18:11 41.73642 1.58800 42924 ft 518 kts 63°
2026-05-04 18:12 41.76902 1.67411 42959 ft 519 kts 63°
2026-05-04 18:12 41.80161 1.76046 42937 ft 520 kts 63°
2026-05-04 18:13 41.83417 1.84698 42944 ft 520 kts 63°
2026-05-04 18:14 41.88294 1.97708 42930 ft 520 kts 63°
2026-05-04 18:14 41.91539 2.06397 42945 ft 521 kts 63°
2026-05-04 18:15 41.98023 2.23839 42951 ft 522 kts 63°
2026-05-04 18:16 42.01252 2.32564 42924 ft 521 kts 63°
2026-05-04 18:16 42.04467 2.41277 42929 ft 520 kts 63°
2026-05-04 18:17 42.09265 2.54332 42913 ft 518 kts 63°
2026-05-04 18:18 42.14033 2.67366 42910 ft 517 kts 64°
2026-05-04 18:18 42.17198 2.76051 42926 ft 516 kts 64°
2026-05-04 18:19 42.21933 2.89094 42916 ft 516 kts 64°
2026-05-04 18:19 42.25078 2.97791 42911 ft 515 kts 64°
2026-05-04 18:20 42.28213 3.06486 42890 ft 515 kts 64°
2026-05-04 18:20 42.31322 3.15135 42913 ft 515 kts 64°
2026-05-04 18:21 42.34442 3.23845 42900 ft 515 kts 64°
2026-05-04 18:21 42.37560 3.32574 42917 ft 515 kts 64°
2026-05-04 18:22 42.40667 3.41299 42905 ft 515 kts 65°
2026-05-04 18:22 42.43769 3.50038 42903 ft 515 kts 65°
2026-05-04 18:23 42.46862 3.58779 42910 ft 514 kts 65°
2026-05-04 18:23 42.49945 3.67518 42913 ft 514 kts 65°
2026-05-04 18:24 42.53023 3.76270 42913 ft 514 kts 65°
2026-05-04 18:24 42.56093 3.85028 42922 ft 514 kts 65°
2026-05-04 18:25 42.59155 3.93791 42908 ft 514 kts 65°
2026-05-04 18:25 42.62206 4.02551 42923 ft 513 kts 65°
2026-05-04 18:26 42.65252 4.11323 42922 ft 513 kts 65°
2026-05-04 18:26 42.68289 4.20096 42909 ft 513 kts 65°
2026-05-04 18:27 42.71320 4.28882 42937 ft 513 kts 65°
2026-05-04 18:27 42.74326 4.37623 42935 ft 514 kts 65°
2026-05-04 18:28 42.77346 4.46432 42943 ft 514 kts 65°
2026-05-04 18:28 42.80363 4.55261 42943 ft 514 kts 66°
2026-05-04 18:29 42.83376 4.64106 42943 ft 515 kts 66°
2026-05-04 18:29 42.86382 4.72960 42955 ft 515 kts 66°
2026-05-04 18:30 42.90884 4.86275 42957 ft 516 kts 66°
2026-05-04 18:31 42.93881 4.95173 42965 ft 517 kts 66°
2026-05-04 18:31 42.96874 5.04091 42969 ft 517 kts 66°
2026-05-04 18:32 42.99869 5.13043 42975 ft 518 kts 66°
2026-05-04 18:32 43.02858 5.22006 42973 ft 519 kts 66°
2026-05-04 18:33 43.05846 5.30998 42974 ft 520 kts 66°
2026-05-04 18:33 43.08830 5.40006 42978 ft 520 kts 66°
2026-05-04 18:34 43.11806 5.49021 42997 ft 520 kts 66°
2026-05-04 18:34 43.14775 5.58045 42984 ft 520 kts 66°
2026-05-04 18:35 43.17735 5.67073 42995 ft 519 kts 66°
2026-05-04 18:35 43.20654 5.76048 42999 ft 518 kts 68°
2026-05-04 18:36 43.22543 5.85609 43015 ft 516 kts 83°
2026-05-04 18:36 43.22907 5.95312 43017 ft 512 kts 93°
2026-05-04 18:37 43.22713 6.05063 43018 ft 512 kts 94°
2026-05-04 18:37 43.22539 6.14810 43023 ft 511 kts 93°
2026-05-04 18:38 43.22412 6.24549 43012 ft 511 kts 93°
2026-05-04 18:38 43.22288 6.34288 43029 ft 510 kts 93°
2026-05-04 18:39 43.22152 6.44012 43022 ft 510 kts 93°
2026-05-04 18:39 43.22055 6.53724 43006 ft 509 kts 88°
2026-05-04 18:39 43.22586 6.58517 43030 ft 510 kts 75°
2026-05-04 18:40 43.23743 6.63116 43034 ft 511 kts 65°
2026-05-04 18:40 43.25453 6.67386 43009 ft 509 kts 54°
2026-05-04 18:40 43.27532 6.71312 43056 ft 509 kts 52°
2026-05-04 18:41 43.31793 6.79088 43049 ft 510 kts 52°
2026-05-04 18:41 43.36018 6.86922 43028 ft 511 kts 53°
2026-05-04 18:42 43.40190 6.94829 43052 ft 511 kts 53°
2026-05-04 18:42 43.44344 7.02770 43058 ft 512 kts 53°
2026-05-04 18:43 43.48496 7.10723 43056 ft 511 kts 53°
2026-05-04 18:43 43.51943 7.17334 43035 ft 511 kts 53°
2026-05-04 18:44 43.56087 7.25299 43052 ft 511 kts 53°
2026-05-04 18:44 43.60214 7.33252 43080 ft 510 kts 54°
2026-05-04 18:45 43.64338 7.41224 43045 ft 510 kts 54°
2026-05-04 18:45 43.68451 7.49194 43046 ft 509 kts 54°
2026-05-04 18:46 43.72553 7.57166 43047 ft 508 kts 54°
2026-05-04 18:46 43.76644 7.65139 43046 ft 508 kts 54°
2026-05-04 18:47 43.80817 7.73015 43057 ft 507 kts 48°
2026-05-04 18:47 43.85802 7.79878 43063 ft 505 kts 37°
2026-05-04 18:48 43.91372 7.85771 43087 ft 504 kts 39°
2026-05-04 18:48 43.93824 7.89251 43079 ft 506 kts 52°
2026-05-04 18:48 43.95744 7.93335 43116 ft 506 kts 63°
2026-05-04 18:49 43.98143 8.02470 43130 ft 504 kts 74°
2026-05-04 18:49 44.00146 8.11825 43109 ft 506 kts 74°
2026-05-04 18:50 44.02199 8.21184 43098 ft 508 kts 73°
2026-05-04 18:50 44.04294 8.30571 43103 ft 509 kts 73°
2026-05-04 18:51 44.06395 8.39977 43097 ft 510 kts 73°
2026-05-04 18:51 44.08489 8.49402 43072 ft 511 kts 73°
2026-05-04 18:52 44.10577 8.58862 43083 ft 511 kts 74°
2026-05-04 18:52 44.12644 8.68264 43071 ft 512 kts 74°
2026-05-04 18:53 44.14729 8.77796 43069 ft 512 kts 74°
2026-05-04 18:53 44.16781 8.87219 43086 ft 512 kts 74°
2026-05-04 18:54 44.18839 8.96708 43076 ft 512 kts 74°
2026-05-04 18:54 44.20889 9.06205 43073 ft 512 kts 74°
2026-05-04 18:55 44.22932 9.15714 43081 ft 512 kts 74°
2026-05-04 18:55 44.25985 9.29999 43079 ft 513 kts 74°
2026-05-04 18:56 44.28012 9.39543 43087 ft 513 kts 74°
2026-05-04 18:56 44.30032 9.49093 43072 ft 513 kts 73°
2026-05-04 18:57 44.32055 9.58645 43074 ft 513 kts 72°
2026-05-04 18:57 44.34602 9.67941 43096 ft 513 kts 67°
2026-05-04 18:58 44.37347 9.77126 43095 ft 512 kts 67°
2026-05-04 18:58 44.40075 9.86324 43088 ft 512 kts 67°
2026-05-04 18:59 44.42761 9.95530 43105 ft 511 kts 68°
2026-05-04 18:59 44.45425 10.04742 43104 ft 511 kts 68°
2026-05-04 19:00 44.48080 10.13958 43145 ft 510 kts 68°
2026-05-04 19:00 44.50725 10.23171 43119 ft 510 kts 68°
2026-05-04 19:01 44.53364 10.32389 43150 ft 509 kts 68°
2026-05-04 19:01 44.55994 10.41608 43155 ft 510 kts 68°
2026-05-04 19:02 44.58603 10.50788 43151 ft 510 kts 68°
2026-05-04 19:02 44.61218 10.60030 43149 ft 510 kts 68°
2026-05-04 19:03 44.63828 10.69281 43141 ft 510 kts 68°
2026-05-04 19:03 44.66429 10.78537 43138 ft 510 kts 68°
2026-05-04 19:04 44.69024 10.87810 43151 ft 510 kts 68°
2026-05-04 19:04 44.71615 10.97100 43127 ft 510 kts 68°
2026-05-04 19:05 44.74198 11.06399 43137 ft 511 kts 68°
2026-05-04 19:05 44.76775 11.15714 43126 ft 511 kts 68°
2026-05-04 19:06 44.79344 11.25032 43099 ft 511 kts 68°
2026-05-04 19:06 44.81906 11.34363 43108 ft 511 kts 68°
2026-05-04 19:07 44.84462 11.43707 43099 ft 511 kts 68°
2026-05-04 19:07 44.87006 11.53046 43113 ft 510 kts 68°
2026-05-04 19:08 44.89536 11.62363 43092 ft 509 kts 68°
2026-05-04 19:08 44.92061 11.71702 43094 ft 507 kts 68°
2026-05-04 19:09 44.94558 11.80973 43103 ft 506 kts 68°
2026-05-04 19:09 44.97051 11.90266 43094 ft 505 kts 68°
2026-05-04 19:10 44.99524 11.99520 43077 ft 503 kts 68°
2026-05-04 19:10 45.01980 12.08749 43070 ft 501 kts 68°
2026-05-04 19:11 45.04422 12.17954 43076 ft 499 kts 68°
2026-05-04 19:11 45.06905 12.27118 43064 ft 498 kts 65°
2026-05-04 19:12 45.11979 12.39888 43056 ft 496 kts 57°
2026-05-04 19:13 45.15565 12.48237 43059 ft 496 kts 57°
2026-05-04 19:13 45.19107 12.56638 43043 ft 497 kts 58°
2026-05-04 19:14 45.22602 12.65014 43042 ft 497 kts 58°
2026-05-04 19:14 45.26117 12.73464 43076 ft 497 kts 58°
2026-05-04 19:15 45.29626 12.81914 43049 ft 497 kts 58°
2026-05-04 19:15 45.33136 12.90380 43052 ft 497 kts 58°
2026-05-04 19:16 45.36651 12.98843 43060 ft 497 kts 58°
2026-05-04 19:16 45.40165 13.07324 43053 ft 497 kts 58°
2026-05-04 19:17 45.43667 13.15810 43058 ft 498 kts 58°
2026-05-04 19:17 45.47166 13.24317 43063 ft 497 kts 58°
2026-05-04 19:18 45.50652 13.32818 43067 ft 497 kts 58°
2026-05-04 19:18 45.54133 13.41334 43072 ft 497 kts 58°
2026-05-04 19:19 45.57612 13.49866 43079 ft 497 kts 58°
2026-05-04 19:19 45.61067 13.58412 43071 ft 497 kts 58°
2026-05-04 19:20 45.64492 13.66999 43077 ft 497 kts 59°
2026-05-04 19:20 45.67907 13.75593 43076 ft 497 kts 59°
2026-05-04 19:21 45.71319 13.84196 43070 ft 497 kts 59°
2026-05-04 19:21 45.74725 13.92803 43081 ft 497 kts 59°
2026-05-04 19:22 45.78128 14.01426 43082 ft 497 kts 59°
2026-05-04 19:22 45.81516 14.10041 43080 ft 496 kts 59°
2026-05-04 19:23 45.84898 14.18666 43086 ft 496 kts 59°
2026-05-04 19:23 45.88270 14.27295 43083 ft 496 kts 59°
2026-05-04 19:24 45.91635 14.35933 43074 ft 495 kts 59°
2026-05-04 19:24 45.94984 14.44556 43077 ft 494 kts 59°
2026-05-04 19:25 45.98325 14.53185 43075 ft 493 kts 59°
2026-05-04 19:25 46.01630 14.61748 43077 ft 493 kts 59°
2026-05-04 19:26 46.04948 14.70372 43071 ft 492 kts 59°
2026-05-04 19:26 46.08255 14.78995 43068 ft 492 kts 59°
2026-05-04 19:27 46.11554 14.87624 43062 ft 491 kts 59°
2026-05-04 19:27 46.14845 14.96260 43050 ft 491 kts 59°
2026-05-04 19:28 46.18129 15.04904 43044 ft 491 kts 59°
2026-05-04 19:28 46.20876 15.12156 43058 ft 491 kts 60°
2026-05-04 19:29 46.24127 15.20765 43029 ft 492 kts 60°
2026-05-04 19:29 46.27395 15.29446 43028 ft 492 kts 60°
2026-05-04 19:30 46.30656 15.38135 43021 ft 492 kts 60°
2026-05-04 19:30 46.33908 15.46831 43026 ft 491 kts 60°
2026-05-04 19:31 46.37152 15.55532 43009 ft 491 kts 60°
2026-05-04 19:31 46.40385 15.64227 42997 ft 490 kts 60°
2026-05-04 19:32 46.43596 15.72927 43022 ft 489 kts 60°
2026-05-04 19:32 46.46746 15.81670 43021 ft 489 kts 61°
2026-05-04 19:33 46.49879 15.90427 43018 ft 489 kts 61°
2026-05-04 19:33 46.53010 15.99184 42988 ft 488 kts 61°
2026-05-04 19:34 46.56137 16.07944 42984 ft 488 kts 61°
2026-05-04 19:34 46.59255 16.16707 42991 ft 488 kts 61°
2026-05-04 19:35 46.62365 16.25477 42991 ft 488 kts 61°
2026-05-04 19:35 46.65469 16.34259 42992 ft 488 kts 61°
2026-05-04 19:36 46.68563 16.43044 42991 ft 488 kts 62°
2026-05-04 19:36 46.71476 16.52003 43159 ft 490 kts 64°
2026-05-04 19:36 46.72855 16.56468 43481 ft 489 kts 64°
2026-05-04 19:37 46.74243 16.60993 43744 ft 488 kts 64°
2026-05-04 19:37 46.75631 16.65505 43987 ft 489 kts 64°
2026-05-04 19:37 46.77030 16.70032 44175 ft 489 kts 64°
2026-05-04 19:37 46.78426 16.74526 44412 ft 489 kts 64°
2026-05-04 19:38 46.79833 16.79046 44652 ft 489 kts 64°
2026-05-04 19:38 46.81239 16.83561 44839 ft 488 kts 64°
2026-05-04 19:38 46.82645 16.88081 44931 ft 489 kts 64°
2026-05-04 19:39 46.85453 16.97132 45006 ft 490 kts 64°
2026-05-04 19:39 46.88254 17.06196 45009 ft 488 kts 64°
2026-05-04 19:40 46.91036 17.15236 45006 ft 487 kts 64°
2026-05-04 19:40 46.93807 17.24273 45010 ft 486 kts 64°
2026-05-04 19:41 46.96567 17.33306 45000 ft 486 kts 64°
2026-05-04 19:41 46.99316 17.42336 44996 ft 485 kts 64°
2026-05-04 19:42 47.02055 17.51365 45009 ft 485 kts 65°
2026-05-04 19:42 47.04785 17.60397 45004 ft 485 kts 65°
2026-05-04 19:43 47.07509 17.69442 45014 ft 485 kts 65°
2026-05-04 19:43 47.10223 17.78489 45013 ft 484 kts 65°
2026-05-04 19:44 47.12930 17.87543 45016 ft 484 kts 65°
2026-05-04 19:44 47.15630 17.96607 45015 ft 484 kts 65°
2026-05-04 19:45 47.18323 18.05680 45021 ft 484 kts 65°
2026-05-04 19:45 47.21006 18.14755 45031 ft 484 kts 65°
2026-05-04 19:46 47.23686 18.23850 45029 ft 484 kts 65°
2026-05-04 19:46 47.26354 18.32940 45032 ft 484 kts 65°
2026-05-04 19:47 47.29016 18.42044 45015 ft 484 kts 65°
2026-05-04 19:47 47.31671 18.51158 45035 ft 484 kts 65°
2026-05-04 19:48 47.34319 18.60278 45040 ft 484 kts 65°
2026-05-04 19:48 47.36958 18.69405 45041 ft 484 kts 65°
2026-05-04 19:49 47.39590 18.78541 45027 ft 484 kts 66°
2026-05-04 19:49 47.42216 18.87690 45047 ft 484 kts 66°
2026-05-04 19:50 47.44834 18.96847 45055 ft 484 kts 66°
2026-05-04 19:50 47.47444 19.06009 45060 ft 484 kts 66°
2026-05-04 19:51 47.50049 19.15191 45051 ft 484 kts 66°
2026-05-04 19:51 47.52649 19.24387 45045 ft 484 kts 66°
2026-05-04 19:52 47.55241 19.33591 45043 ft 484 kts 66°
2026-05-04 19:52 47.57824 19.42798 45047 ft 484 kts 66°
2026-05-04 19:53 47.60400 19.52015 45048 ft 484 kts 66°
2026-05-04 19:53 47.62970 19.61248 45052 ft 485 kts 66°
2026-05-04 19:54 47.65535 19.70499 45049 ft 485 kts 66°
2026-05-04 19:54 47.68092 19.79756 45048 ft 485 kts 66°
2026-05-04 19:55 47.70638 19.89009 45045 ft 484 kts 66°
2026-05-04 19:55 47.73177 19.98273 45048 ft 484 kts 66°
2026-05-04 19:56 47.75708 20.07542 45051 ft 484 kts 66°
2026-05-04 19:56 47.78231 20.16819 45045 ft 484 kts 66°
2026-05-04 19:57 47.80744 20.26099 45058 ft 484 kts 66°
2026-05-04 19:57 47.83251 20.35390 45054 ft 484 kts 66°
2026-05-04 19:58 47.85749 20.44684 45048 ft 483 kts 66°
2026-05-04 19:58 47.88239 20.53985 45051 ft 483 kts 67°
2026-05-04 19:59 47.90719 20.63287 45046 ft 483 kts 67°
2026-05-04 19:59 47.93192 20.72599 45043 ft 483 kts 67°
2026-05-04 20:00 47.95654 20.81911 45054 ft 483 kts 67°
2026-05-04 20:00 47.98096 20.91179 45048 ft 483 kts 67°
2026-05-04 20:01 48.00558 21.00566 45054 ft 483 kts 67°
2026-05-04 20:01 48.02983 21.09845 45052 ft 483 kts 67°
2026-05-04 20:02 48.05414 21.19185 45047 ft 482 kts 67°
2026-05-04 20:02 48.07839 21.28541 45050 ft 482 kts 67°
2026-05-04 20:03 48.10256 21.37903 45053 ft 482 kts 68°
2026-05-04 20:03 48.12664 21.47270 45054 ft 482 kts 68°
2026-05-04 20:04 48.15064 21.56643 45067 ft 482 kts 68°
2026-05-04 20:04 48.17460 21.66039 45070 ft 482 kts 68°
2026-05-04 20:05 48.19845 21.75431 45065 ft 483 kts 68°
2026-05-04 20:05 48.22224 21.84841 45062 ft 483 kts 68°
2026-05-04 20:06 48.24597 21.94264 45061 ft 483 kts 68°
2026-05-04 20:06 48.26961 22.03689 45053 ft 483 kts 68°
2026-05-04 20:07 48.29317 22.13127 45050 ft 483 kts 68°
2026-05-04 20:07 48.31674 22.22568 45052 ft 482 kts 67°
2026-05-04 20:08 48.34270 22.31858 45054 ft 482 kts 65°
2026-05-04 20:08 48.36984 22.41060 45059 ft 482 kts 65°
2026-05-04 20:09 48.39676 22.50290 45058 ft 482 kts 65°
2026-05-04 20:09 48.42333 22.59553 45058 ft 482 kts 65°
2026-05-04 20:10 48.44969 22.68827 45065 ft 482 kts 65°
2026-05-04 20:10 48.47596 22.78113 45065 ft 482 kts 65°
2026-05-04 20:11 48.49774 22.85836 45070 ft 482 kts 65°
2026-05-04 20:11 48.52814 22.96651 45075 ft 482 kts 65°
2026-05-04 20:12 48.55423 23.05969 45082 ft 482 kts 66°
2026-05-04 20:12 48.58025 23.15302 45084 ft 482 kts 66°
2026-05-04 20:13 48.60199 23.23124 45090 ft 482 kts 66°
2026-05-04 20:13 48.62787 23.32474 45084 ft 482 kts 66°
2026-05-04 20:14 48.65368 23.41834 45095 ft 482 kts 66°
2026-05-04 20:14 48.67921 23.51129 45095 ft 482 kts 66°
2026-05-04 20:15 48.70483 23.60493 45088 ft 482 kts 66°
2026-05-04 20:15 48.73037 23.69868 45092 ft 482 kts 66°
2026-05-04 20:16 48.75583 23.79250 45097 ft 481 kts 66°
2026-05-04 20:16 48.78123 23.88644 45096 ft 481 kts 66°
2026-05-04 20:17 48.80652 23.98040 45093 ft 481 kts 66°
2026-05-04 20:17 48.83175 24.07450 45087 ft 482 kts 66°
2026-05-04 20:18 48.85691 24.16872 45075 ft 481 kts 66°
2026-05-04 20:18 48.88199 24.26302 45076 ft 481 kts 67°
2026-05-04 20:19 48.90700 24.35742 45068 ft 481 kts 67°
2026-05-04 20:19 48.93191 24.45185 45070 ft 481 kts 67°
2026-05-04 20:20 48.95675 24.54639 45052 ft 481 kts 68°
2026-05-04 20:20 48.98148 24.64093 45047 ft 481 kts 68°
2026-05-04 20:21 49.00613 24.73551 45044 ft 481 kts 68°
2026-05-04 20:21 49.04295 24.87753 45044 ft 480 kts 68°
2026-05-04 20:22 49.06737 24.97224 45037 ft 480 kts 68°
2026-05-04 20:22 49.09173 25.06710 45034 ft 480 kts 68°
2026-05-04 20:23 49.11601 25.16202 45035 ft 480 kts 68°
2026-05-04 20:23 49.14019 25.25698 45036 ft 480 kts 68°
2026-05-04 20:24 49.16428 25.35196 45032 ft 480 kts 68°
2026-05-04 20:24 49.18830 25.44708 45033 ft 480 kts 68°
2026-05-04 20:25 49.21225 25.54233 45031 ft 480 kts 68°
2026-05-04 20:25 49.23612 25.63763 45033 ft 480 kts 68°
2026-05-04 20:26 49.25991 25.73303 45023 ft 480 kts 69°
2026-05-04 20:26 49.28347 25.82792 45024 ft 480 kts 69°
2026-05-04 20:27 49.30725 25.92412 45023 ft 480 kts 69°
2026-05-04 20:27 49.33067 26.01927 45020 ft 480 kts 69°
2026-05-04 20:28 49.35431 26.11569 45021 ft 480 kts 69°
2026-05-04 20:28 49.37772 26.21165 45021 ft 480 kts 69°
2026-05-04 20:29 49.40107 26.30772 45020 ft 480 kts 69°
2026-05-04 20:29 49.42432 26.40382 45014 ft 480 kts 69°
2026-05-04 20:30 49.44751 26.50014 45007 ft 480 kts 69°
2026-05-04 20:30 49.47046 26.59580 45022 ft 481 kts 69°
2026-05-04 20:31 49.49350 26.69231 45019 ft 481 kts 69°
2026-05-04 20:31 49.51645 26.78887 45018 ft 481 kts 69°
2026-05-04 20:32 49.53934 26.88562 45004 ft 481 kts 70°
2026-05-04 20:32 49.56215 26.98242 45004 ft 481 kts 70°
2026-05-04 20:33 49.58487 27.07928 45021 ft 481 kts 70°
2026-05-04 20:33 49.60752 27.17632 45019 ft 481 kts 70°
2026-05-04 20:34 49.63009 27.27339 45008 ft 481 kts 70°
2026-05-04 20:34 49.65258 27.37062 45005 ft 481 kts 70°
2026-05-04 20:35 49.67499 27.46793 45008 ft 481 kts 70°
2026-05-04 20:35 49.69732 27.56530 45024 ft 481 kts 70°
2026-05-04 20:36 49.71958 27.66283 45009 ft 481 kts 70°
2026-05-04 20:36 49.74175 27.76042 45007 ft 481 kts 70°
2026-05-04 20:37 49.76387 27.85816 45020 ft 481 kts 70°
2026-05-04 20:37 49.78794 27.95476 45020 ft 481 kts 68°
2026-05-04 20:38 49.81318 28.05068 45007 ft 481 kts 68°
2026-05-04 20:38 49.83812 28.14687 45005 ft 481 kts 68°
2026-05-04 20:39 49.86271 28.24335 45012 ft 481 kts 68°
2026-05-04 20:39 49.88711 28.33994 45015 ft 481 kts 68°
2026-05-04 20:40 49.91148 28.43670 45010 ft 481 kts 68°
2026-05-04 20:40 49.93577 28.53354 44916 ft 483 kts 68°
2026-05-04 20:41 49.94811 28.58288 44100 ft 492 kts 68°
2026-05-04 20:41 49.96039 28.63208 43410 ft 488 kts 68°
2026-05-04 20:41 49.97261 28.68118 42698 ft 486 kts 68°
2026-05-04 20:41 49.98461 28.72947 42003 ft 484 kts 68°
2026-05-04 20:42 49.99669 28.77823 41269 ft 483 kts 68°
2026-05-04 20:42 50.00871 28.82685 40555 ft 482 kts 68°
2026-05-04 20:42 50.02069 28.87535 39823 ft 481 kts 68°
2026-05-04 20:42 50.03266 28.92394 39092 ft 480 kts 68°
2026-05-04 20:43 50.04460 28.97251 38210 ft 481 kts 69°
2026-05-04 20:43 50.05642 29.02119 37291 ft 480 kts 69°
2026-05-04 20:43 50.06810 29.06972 36452 ft 478 kts 69°
2026-05-04 20:43 50.07969 29.11810 35553 ft 476 kts 69°
2026-05-04 20:44 50.09125 29.16646 34567 ft 477 kts 69°
2026-05-04 20:44 50.10284 29.21496 33473 ft 478 kts 69°
2026-05-04 20:44 50.11442 29.26350 32305 ft 478 kts 69°
2026-05-04 20:44 50.12599 29.31206 31138 ft 479 kts 69°
2026-05-04 20:45 50.13755 29.36068 30138 ft 476 kts 69°
2026-05-04 20:45 50.14895 29.40877 29158 ft 469 kts 70°
2026-05-04 20:45 50.16014 29.45606 28235 ft 461 kts 70°
2026-05-04 20:45 50.17111 29.50247 27379 ft 453 kts 70°
2026-05-04 20:46 50.18192 29.54833 26518 ft 446 kts 69°
2026-05-04 20:46 50.19401 29.59240 25658 ft 438 kts 61°
2026-05-04 20:46 50.20997 29.63252 24857 ft 433 kts 56°
2026-05-04 20:46 50.22686 29.67116 24040 ft 429 kts 56°
2026-05-04 20:47 50.24364 29.70935 23158 ft 425 kts 56°
2026-05-04 20:47 50.26014 29.74752 22247 ft 421 kts 56°
2026-05-04 20:47 50.27620 29.78540 21455 ft 416 kts 56°
2026-05-04 20:47 50.29191 29.82303 20658 ft 411 kts 57°
2026-05-04 20:48 50.30737 29.86039 19881 ft 407 kts 57°
2026-05-04 20:48 50.32243 29.89697 19144 ft 404 kts 57°
2026-05-04 20:48 50.33755 29.93380 18393 ft 401 kts 56°
2026-05-04 20:48 50.35256 29.97041 17549 ft 398 kts 56°
2026-05-04 20:49 50.36745 30.00675 16770 ft 394 kts 56°
2026-05-04 20:49 50.38236 30.04319 16019 ft 390 kts 56°
2026-05-04 20:49 50.39674 30.07837 15316 ft 386 kts 56°
2026-05-04 20:49 50.41116 30.11368 14621 ft 383 kts 56°
2026-05-04 20:50 50.42543 30.14868 13943 ft 380 kts 56°
2026-05-04 20:50 50.43959 30.18345 13200 ft 377 kts 56°
2026-05-04 20:50 50.45364 30.21798 12488 ft 374 kts 56°
2026-05-04 20:50 50.46754 30.25218 11806 ft 371 kts 56°
2026-05-04 20:51 50.48134 30.28619 11133 ft 368 kts 56°
2026-05-04 20:51 50.49503 30.31995 10668 ft 361 kts 56°
2026-05-04 20:51 50.50820 30.35247 10504 ft 345 kts 56°
2026-05-04 20:51 50.52080 30.38363 10356 ft 331 kts 55°
2026-05-04 20:52 50.53288 30.41351 10215 ft 317 kts 55°
2026-05-04 20:52 50.54443 30.44211 10084 ft 304 kts 55°
2026-05-04 20:52 50.55555 30.46966 9848 ft 295 kts 55°
2026-05-04 20:52 50.56638 30.49649 9619 ft 287 kts 55°
2026-05-04 20:53 50.57709 30.52302 9202 ft 286 kts 55°
2026-05-04 20:53 50.58777 30.54954 8805 ft 286 kts 56°
2026-05-04 20:53 50.59840 30.57596 8420 ft 283 kts 56°
2026-05-04 20:53 50.60873 30.60168 7975 ft 278 kts 56°
2026-05-04 20:54 50.61904 30.62739 7603 ft 278 kts 56°
2026-05-04 20:54 50.62935 30.65313 7239 ft 276 kts 57°
2026-05-04 20:54 50.63572 30.68094 6868 ft 273 kts 86°
2026-05-04 20:54 50.63463 30.71015 6536 ft 265 kts 94°
2026-05-04 20:55 50.63358 30.73923 6181 ft 266 kts 91°
2026-05-04 20:55 50.63282 30.76845 5838 ft 268 kts 91°
2026-05-04 20:55 50.63207 30.79792 5466 ft 270 kts 91°
2026-05-04 20:55 50.63131 30.82751 5110 ft 271 kts 92°
2026-05-04 20:56 50.63040 30.85710 4755 ft 267 kts 96°
2026-05-04 20:56 50.62389 30.88373 4381 ft 264 kts 131°
2026-05-04 20:56 50.60890 30.89904 4152 ft 255 kts 166°
2026-05-04 20:56 50.59778 30.90276 4077 ft 241 kts 171°
2026-05-04 20:57 50.58168 30.90828 3958 ft 233 kts 169°
2026-05-04 20:57 50.56619 30.91386 3859 ft 224 kts 169°
2026-05-04 20:57 50.55127 30.91879 3760 ft 213 kts 176°
2026-05-04 20:57 50.53696 30.91953 3673 ft 200 kts 184°
2026-05-04 20:58 50.52323 30.91865 3499 ft 195 kts 186°
2026-05-04 20:58 50.50975 30.91760 3269 ft 193 kts 185°
2026-05-04 20:58 50.49641 30.91658 3034 ft 191 kts 185°
2026-05-04 20:58 50.48321 30.91558 2783 ft 188 kts 185°
2026-05-04 20:59 50.47064 30.91466 2549 ft 173 kts 185°
2026-05-04 20:59 50.45892 30.91379 2337 ft 165 kts 185°
2026-05-04 20:59 50.44785 30.91297 2122 ft 155 kts 185°
2026-05-04 20:59 50.43709 30.91216 1925 ft 152 kts 185°
2026-05-04 21:00 50.42697 30.91143 1717 ft 139 kts 186°
2026-05-04 21:00 50.41758 30.91071 1562 ft 132 kts 186°
2026-05-04 21:00 50.40841 30.91003 1372 ft 134 kts 186°
2026-05-04 21:00 50.39905 30.90932 1201 ft 136 kts 185°
2026-05-04 21:01 50.38950 30.90860 1036 ft 140 kts 184°
2026-05-04 21:01 50.37971 30.90789 837 ft 141 kts 184°
2026-05-04 21:01 50.36997 30.90723 641 ft 140 kts 183°
2026-05-04 21:01 50.36038 30.90647 455 ft 141 kts 183°
2026-05-04 21:02 50.35135 30.90576 418 ft 112 kts 182°
2026-05-04 21:02 50.34512 30.90531 420 ft 67 kts 182°
2026-05-04 21:02 50.34138 30.90504 417 ft 42 kts 183°
2026-05-04 21:02 50.33870 30.90482 419 ft 35 kts 183°
2026-05-04 21:03 50.33641 30.90465 427 ft 31 kts 181°
2026-05-04 21:03 50.33434 30.90454 419 ft 28 kts 182°
2026-05-04 21:03 50.33321 30.90336 417 ft 19 kts 257°
2026-05-04 21:03 50.33323 30.90175 411 ft 9 kts 277°
2026-05-04 21:04 50.33353 30.90129 410 ft 6 kts 339°
2026-05-04 21:04 50.33398 30.90124 410 ft 6 kts
2026-05-04 21:04 50.33442 30.90125 409 ft 6 kts 352°
2026-05-04 21:04 50.33481 30.90092 417 ft 6 kts 311°
2026-05-04 21:05 50.33494 30.90026 412 ft 7 kts 275°
2026-05-04 21:05 50.33497 30.89951 415 ft 7 kts 273°
2026-05-04 21:05 50.33500 30.89874 419 ft 7 kts 273°
2026-05-04 21:05 50.33500 30.89794 419 ft 7 kts 253°
2026-05-04 21:06 50.33461 30.89759 411 ft 6 kts 176°
2026-05-04 21:06 50.33441 30.89760 412 ft 3 kts 179°
2026-05-04 21:06 50.33422 30.89759 415 ft 3 kts 182°
2026-05-04 21:06 50.33414 30.89759 410 ft 0 kts 182°